CW9356 Weather Reports


Display with metric or nautical units.
time (UTC)temp
F
wind
direction
speed
MPH
gust
MPH
rain 1hr
in
rain 24hr
in
rain mn
in
humidity
%
barometer
mb
20260906192115 97 180 0.0 0.0 0.00 0.00 0.00 41 1011.8
20260906190631 96 180 0.0 0.0 0.00 0.00 0.00 43 1012.0
20260906185127 96 180 0.0 0.0 0.00 0.00 0.00 42 1012.1
20260906183643 97 180 0.0 2.0 0.00 0.00 0.00 42 1012.4
20260906182120 97 180 0.0 0.0 0.00 0.00 0.00 38 1012.8
20260906180617 97 180 0.0 0.0 0.00 0.00 0.00 39 1013.1
20260906175115 97 180 0.0 0.0 0.00 0.00 0.00 38 1013.4
20260906173629 97 180 0.0 0.0 0.00 0.00 0.00 38 1013.7
20260906172144 97 180 0.0 0.0 0.00 0.00 0.00 39 1013.8
20260906170622 96 180 0.0 0.0 0.00 0.00 0.00 40 1014.0
20260906165116 94 180 0.0 0.0 0.00 0.00 0.00 41 1014.4
20260906163616 94 180 0.0 0.0 0.00 0.00 0.00 42 1014.6
20260906162129 92 180 0.0 5.0 0.00 0.00 0.00 44 1014.6
20260906160629 92 180 0.0 1.0 0.00 0.00 0.00 46 1014.6
20260906155122 91 180 0.0 1.0 0.00 0.00 0.00 48 1014.6
20260906153617 91 180 0.0 1.0 0.00 0.00 0.00 48 1014.3
20260906152155 91 180 0.0 2.0 0.00 0.00 0.00 48 1014.0
20260906150628 92 180 0.0 1.0 0.00 0.00 0.00 46 1013.8
20260906145145 90 180 0.0 0.0 0.00 0.00 0.00 48 1013.8
20260906143619 87 180 0.0 0.0 0.00 0.00 0.00 55 1013.8
20260906142116 84 180 0.0 0.0 0.00 0.00 0.00 60 1013.8
20260906140632 81 180 0.0 0.0 0.00 0.00 0.00 66 1013.8
20260906135125 79 180 0.0 0.0 0.00 0.00 0.00 69 1013.9
20260906133624 77 180 0.0 0.0 0.00 0.00 0.00 74 1013.8
20260906132118 74 180 0.0 0.0 0.00 0.00 0.00 79 1013.6
20260906130617 73 180 0.0 0.0 0.00 0.00 0.00 79 1013.4
20260906125129 72 180 0.0 0.0 0.00 0.00 0.00 79 1013.1
20260906123649 72 180 0.0 0.0 0.00 0.00 0.00 78 1013.0
20260906122121 72 180 0.0 0.0 0.00 0.00 0.00 78 1012.7
20260906120618 72 180 0.0 0.0 0.00 0.00 0.00 77 1012.4
20260906115115 72 180 0.0 0.0 0.00 0.00 0.00 77 1012.3
20260906113652 72 180 0.0 0.0 0.00 0.00 0.00 76 1012.2
20260906112128 73 180 0.0 0.0 0.00 0.00 0.00 75 1011.9
20260906110624 73 180 0.0 0.0 0.00 0.00 0.00 75 1011.9
20260906105121 73 180 0.0 0.0 0.00 0.00 0.00 75 1011.9
20260906103615 73 180 0.0 0.0 0.00 0.00 0.00 75 1011.9
20260906102129 73 180 0.0 0.0 0.00 0.00 0.00 74 1011.9
20260906100631 73 180 0.0 0.0 0.00 0.00 0.00 75 1011.9
20260906095126 73 180 0.0 0.0 0.00 0.00 0.00 73 1011.8
20260906093625 74 180 0.0 0.0 0.00 0.00 0.00 72 1011.9
20260906092118 74 180 0.0 0.0 0.00 0.00 0.00 70 1012.0
20260906090617 75 180 0.0 0.0 0.00 0.00 0.00 70 1011.8
20260906085130 76 180 0.0 0.0 0.00 0.00 0.00 68 1011.7
20260906083650 77 180 0.0 0.0 0.00 0.00 0.00 67 1011.7
20260906082122 77 180 0.0 0.0 0.00 0.00 0.00 66 1011.6
20260906080618 78 180 0.0 0.0 0.00 0.00 0.00 65 1011.8
20260906075116 78 180 0.0 0.0 0.00 0.00 0.00 64 1011.7
20260906073631 78 180 0.0 0.0 0.00 0.00 0.00 64 1011.6
20260906072128 79 180 0.0 0.0 0.00 0.00 0.00 63 1011.5
20260906070622 79 180 0.0 0.0 0.00 0.00 0.00 63 1011.4
20260906065119 79 180 0.0 0.0 0.00 0.00 0.00 63 1011.3
20260906063614 79 180 0.0 0.0 0.00 0.00 0.00 62 1011.3
20260906062128 80 180 0.0 0.0 0.00 0.00 0.00 62 1011.4
20260906060628 80 180 0.0 0.0 0.00 0.00 0.00 62 1011.4
20260906055121 80 180 0.0 0.0 0.00 0.00 0.00 61 1011.3
20260906053620 80 180 0.0 0.0 0.00 0.00 0.00 61 1011.4
20260906052115 80 180 0.0 0.0 0.00 0.00 0.00 61 1011.3
20260906050614 80 180 0.0 0.0 0.00 0.00 0.00 59 1011.3
20260906045127 81 180 0.0 0.0 0.00 0.00 0.00 58 1011.3
20260906043627 82 180 0.0 0.0 0.00 0.00 0.00 57 1011.3
20260906042120 82 180 0.0 0.0 0.00 0.00 0.00 57 1011.3
20260906040618 82 180 0.0 0.0 0.00 0.00 0.00 56 1011.2
20260906035131 84 180 0.0 0.0 0.00 0.00 0.00 53 1011.2
20260906033626 83 180 0.0 0.0 0.00 0.00 0.00 53 1011.1
20260906032123 84 180 0.0 0.0 0.00 0.00 0.00 53 1011.0
20260906030619 83 180 0.0 0.0 0.00 0.00 0.00 53 1010.8
20260906025136 85 180 0.0 0.0 0.00 0.00 0.00 51 1010.7
20260906023631 86 180 0.0 0.0 0.00 0.00 0.00 50 1010.5
20260906022129 86 180 0.0 0.0 0.00 0.00 0.00 50 1010.0
20260906020624 86 180 0.0 0.0 0.00 0.00 0.00 50 1009.8
20260906015117 87 180 0.0 0.0 0.00 0.00 0.00 49 1009.6
20260906013615 88 180 0.0 0.0 0.00 0.00 0.00 48 1009.5
20260906012130 89 180 0.0 0.0 0.00 0.00 0.00 48 1009.3
20260906010629 90 180 0.0 0.0 0.00 0.00 0.00 46 1009.4
20260906005122 91 180 0.0 0.0 0.00 0.00 0.00 44 1009.4
20260906003642 93 180 0.0 0.0 0.00 0.00 0.00 42 1009.6
20260906002133 94 180 0.0 0.0 0.00 0.00 0.00 41 1009.5
20260906000629 95 180 0.0 0.0 0.00 0.00 0.00 39 1009.6
20260905235125 96 180 0.0 0.0 0.00 0.00 0.00 38 1009.5
20260905233622 97 180 0.0 0.0 0.00 0.00 0.00 37 1009.4
20260905232118 98 180 0.0 1.0 0.00 0.00 0.00 35 1009.4
20260905230614 99 180 0.0 0.0 0.00 0.00 0.00 35 1009.6
20260905225132 99 180 0.0 1.0 0.00 0.00 0.00 34 1009.4
20260905223628 99 180 0.0 1.0 0.00 0.00 0.00 34 1009.2
20260905222124 100 180 0.0 0.0 0.00 0.00 0.00 34 1009.5
20260905220620 100 180 0.0 2.0 0.00 0.00 0.00 34 1009.4
20260905215132 100 180 0.0 11.0 0.00 0.00 0.00 33 1009.3
20260905213649 101 180 0.0 1.0 0.00 0.00 0.00 32 1009.3
20260905212122 102 180 0.0 11.0 0.00 0.00 0.00 31 1009.6
20260905210619 105 180 1.0 11.0 0.00 0.00 0.00 29 1009.6
20260905205153 105 180 2.0 10.0 0.00 0.00 0.00 30 1009.4
20260905203645 105 180 3.0 13.0 0.00 0.00 0.00 30 1009.5
20260905202141 105 180 2.0 11.0 0.00 0.00 0.00 30 1009.7
20260905200615 105 180 2.0 13.0 0.00 0.00 0.00 30 1010.0
20260905195131 104 180 1.0 6.0 0.00 0.00 0.00 30 1010.3
20260905193627 103 180 0.0 11.0 0.00 0.00 0.00 33 1010.5